Weather in Krasnaya Dubrava

Russia / Kursk Oblast     51°47′24″N   35°18′43″E
temp.,
°C
wind,
m/s
gust,
m/s
humid.,
%
clouds,
%
prec.,
mm/h
press.,
hPa
HPBL,
m
27 november, sat
sat2700:000sse51390100 0.0 1013328
03:000se61494100 0.0 1011376
06:00+1se71793100 0.0 1008540
09:00+2sse91889100 0.0 1006651
12:00+3sse91892100 0.9 1002648
15:00+4s81895100 1.8 1001712
18:00+6s71497100 0.1 1001583
21:00+7s61393100 0.1 1002422
28 november, sun
sun2800:00+6ssw5129477 0.1 1003344
03:00+4ssw379746 0.1 1004143
06:00+3sw22978 0.0 100523
09:00+2sw22930 0.0 100714
12:00+5sw23802 0.0 1008181
15:00+6sse238251 0.0 100885
18:00+4sse3894100 0.0 1009155
21:00+4se41195100 0.0 1008230
29 november, mon
mon2900:00+4se41195100 0.0 1007215
03:00+6se51195100 0.1 1005257
06:00+6sse41195100 0.0 1003271
09:00+7ese61197100 0.5 1001381
12:00+8se51298100 0.1 998445
15:00+9sse61397100 2.4 993615
18:00+10s71495100 3.0 989629
21:00+10s61495100 4.3 986789
30 november, tue
tue3000:00+9s4897100 0.9 983374
03:00+5wsw111688100 20.4 987963
06:00+3wsw101672100 0.0 9901206
09:00+3sw91668100 0.1 9921506
12:00+3sw9156684 0.0 9931238
15:00+2sw9166895 0.1 9921442
18:00+2sw101672100 0.0 9921156
21:00+1wsw9138092 0.3 9921060
1 december, wed
wed100:00−1w71387100 0.1 9941141
03:00−1w8138198 0.3 996855
06:00−2w71179100 0.0 999991
09:00−2wsw6108498 0.1 1000806
12:00−1wsw5876100 0.1 1000759
15:00−1sw5994100 1.0 999704
18:00−1sw499689 0.6 999567
21:000wsw4998100 1.0 1000560